Location: Newark
(33.2833°N, 8.3333°W)
Time: 16:22:17
(UTC+00:00)

Envisat - Pass Details

Date: 23 September 2019
Orbit: 764 x 766 km, 98.1° (Epoch: 15 October)

Event Time Altitude Azimuth Distance (km) Brightness Sun altitude
Rises 19:07:50 0° 178° (S) 3,216 6.1 -8.9°
Reaches altitude 10° 19:10:11 10° 183° (S) 2,294 5.4 -9.4°
Maximum altitude 19:15:07 54° 260° (W) 928 3.9 -10.4°
Drops below altitude 10° 19:20:05 10° 337° (NNW) 2,306 5.9 -11.4°
Sets 19:22:27 0° 342° (NNW) 3,236 6.6 -11.9°
